owner,sensor,date,latitude,longitude,vertical_datum,wind_speed,wind_to_direction,wind_speed_of_gust,qcFlag 
TCOON,ioos:station:TCOON:005:1,2013-05-01T00:00:00Z,27.6346,-97.2370,0.0,6.7,110.0,,'1111122,1111122,1111122' 
TCOON,ioos:station:TCOON:005:1,2013-05-01T00:06:00Z,27.6346,-97.2370,0.0,6.3,109.0,7.8,'11111222,11111222,11111222' 
TCOON,ioos:station:TCOON:005:1,2013-05-01T00:12:00Z,27.6346,-97.2370,0.0,6.4,108.0,9.0,'11111222,11111222,11111222' 
TCOON,ioos:station:TCOON:005:1,2013-05-01T00:18:00Z,27.6346,-97.2370,0.0,6.4,109.0,8.1,'11111222,11111222,11111222' 
TCOON,ioos:station:TCOON:005:1,2013-05-01T00:24:00Z,27.6346,-97.2370,0.0,7.1,113.0,8.9,'11111222,11111222,11111222' 
TCOON,ioos:station:TCOON:005:1,2013-05-01T00:30:00Z,27.6346,-97.2370,0.0,7.0,114.0,8.2,'11111222,11111222,11111222' 
TCOON,ioos:station:TCOON:005:1,2013-05-01T00:36:00Z,27.6346,-97.2370,0.0,7.0,113.0,8.9,'11111222,11111222,11111222' 
TCOON,ioos:station:TCOON:005:1,2013-05-01T00:42:00Z,27.6346,-97.2370,0.0,7.0,114.0,9.1,'11111222,11111222,11111222' 
TCOON,ioos:station:TCOON:005:1,2013-05-01T00:48:00Z,27.6346,-97.2370,0.0,6.5,110.0,8.3,'11111222,11111222,11111222' 
TCOON,ioos:station:TCOON:005:1,2013-05-01T00:54:00Z,27.6346,-97.2370,0.0,5.7,113.0,6.9,'11111222,11111222,11111222' 
TCOON,ioos:station:TCOON:005:1,2013-05-01T01:00:00Z,27.6346,-97.2370,0.0,7.2,110.0,,'1111122,1111122,1111122' 
TCOON,ioos:station:TCOON:005:1,2013-05-01T01:06:00Z,27.6346,-97.2370,0.0,5.2,120.0,6.9,'11111222,11111222,11111222' 
TCOON,ioos:station:TCOON:005:1,2013-05-01T01:12:00Z,27.6346,-97.2370,0.0,5.2,116.0,7.8,'11111222,11111222,11111222' 
TCOON,ioos:station:TCOON:005:1,2013-05-01T01:18:00Z,27.6346,-97.2370,0.0,5.8,113.0,7.3,'11111222,11111222,11111222' 
TCOON,ioos:station:TCOON:005:1,2013-05-01T01:24:00Z,27.6346,-97.2370,0.0,5.6,109.0,7.3,'11111222,11111222,11111222' 
TCOON,ioos:station:TCOON:005:1,2013-05-01T01:30:00Z,27.6346,-97.2370,0.0,5.5,111.0,6.7,'11111222,11111222,11111222' 
TCOON,ioos:station:TCOON:005:1,2013-05-01T01:36:00Z,27.6346,-97.2370,0.0,5.6,110.0,7.2,'11111222,11111222,11111222' 
TCOON,ioos:station:TCOON:005:1,2013-05-01T01:42:00Z,27.6346,-97.2370,0.0,5.7,112.0,7.4,'11111222,11111222,11111222' 
TCOON,ioos:station:TCOON:005:1,2013-05-01T01:48:00Z,27.6346,-97.2370,0.0,5.6,110.0,6.8,'11111222,11111222,11111222' 
TCOON,ioos:station:TCOON:005:1,2013-05-01T01:54:00Z,27.6346,-97.2370,0.0,5.7,111.0,6.8,'11111222,11111222,11111222' 
TCOON,ioos:station:TCOON:005:1,2013-05-01T02:00:00Z,27.6346,-97.2370,0.0,5.7,110.0,,'1111122,1111122,1111122' 
TCOON,ioos:station:TCOON:005:1,2013-05-01T02:06:00Z,27.6346,-97.2370,0.0,5.4,110.0,6.9,'11111222,11111222,11111222' 
TCOON,ioos:station:TCOON:005:1,2013-05-01T02:12:00Z,27.6346,-97.2370,0.0,5.6,109.0,6.7,'11111222,11111222,11111222' 
TCOON,ioos:station:TCOON:005:1,2013-05-01T02:18:00Z,27.6346,-97.2370,0.0,5.6,105.0,7.0,'11111222,11111222,11111222' 
TCOON,ioos:station:TCOON:005:1,2013-05-01T02:24:00Z,27.6346,-97.2370,0.0,5.2,108.0,6.2,'11111222,11111222,11111222' 
TCOON,ioos:station:TCOON:005:1,2013-05-01T02:30:00Z,27.6346,-97.2370,0.0,5.2,119.0,6.5,'11111222,11111222,11111222' 
TCOON,ioos:station:TCOON:005:1,2013-05-01T02:36:00Z,27.6346,-97.2370,0.0,5.0,114.0,6.1,'11111222,11111222,11111222' 
TCOON,ioos:station:TCOON:005:1,2013-05-01T02:42:00Z,27.6346,-97.2370,0.0,4.6,114.0,5.8,'11111222,11111222,11111222' 
TCOON,ioos:station:TCOON:005:1,2013-05-01T02:48:00Z,27.6346,-97.2370,0.0,5.4,112.0,6.3,'11111222,11111222,11111222' 
TCOON,ioos:station:TCOON:005:1,2013-05-01T02:54:00Z,27.6346,-97.2370,0.0,5.6,108.0,6.6,'11111222,11111222,11111222' 
TCOON,ioos:station:TCOON:005:1,2013-05-01T03:00:00Z,27.6346,-97.2370,0.0,5.1,110.0,,'1111122,1111122,1111122' 
TCOON,ioos:station:TCOON:005:1,2013-05-01T03:06:00Z,27.6346,-97.2370,0.0,5.5,113.0,7.1,'11111222,11111222,11111222' 
TCOON,ioos:station:TCOON:005:1,2013-05-01T03:12:00Z,27.6346,-97.2370,0.0,5.1,114.0,6.4,'11111222,11111222,11111222' 
TCOON,ioos:station:TCOON:005:1,2013-05-01T03:18:00Z,27.6346,-97.2370,0.0,5.3,117.0,6.8,'11111222,11111222,11111222' 
TCOON,ioos:station:TCOON:005:1,2013-05-01T03:24:00Z,27.6346,-97.2370,0.0,5.5,116.0,6.7,'11111222,11111222,11111222' 
TCOON,ioos:station:TCOON:005:1,2013-05-01T03:30:00Z,27.6346,-97.2370,0.0,5.4,117.0,7.2,'11111222,11111222,11111222' 
TCOON,ioos:station:TCOON:005:1,2013-05-01T03:36:00Z,27.6346,-97.2370,0.0,6.2,111.0,7.5,'11111222,11111222,11111222' 
TCOON,ioos:station:TCOON:005:1,2013-05-01T03:42:00Z,27.6346,-97.2370,0.0,6.5,110.0,8.1,'11111222,11111222,11111222' 
TCOON,ioos:station:TCOON:005:1,2013-05-01T03:48:00Z,27.6346,-97.2370,0.0,5.8,113.0,7.8,'11111222,11111222,11111222' 
TCOON,ioos:station:TCOON:005:1,2013-05-01T03:54:00Z,27.6346,-97.2370,0.0,6.1,120.0,8.0,'11111222,11111222,11111222' 
TCOON,ioos:station:TCOON:005:1,2013-05-01T04:00:00Z,27.6346,-97.2370,0.0,6.2,110.0,,'1111122,1111122,1111122' 
TCOON,ioos:station:TCOON:005:1,2013-05-01T04:06:00Z,27.6346,-97.2370,0.0,5.3,118.0,7.3,'11111222,11111222,11111222' 
TCOON,ioos:station:TCOON:005:1,2013-05-01T04:12:00Z,27.6346,-97.2370,0.0,5.9,116.0,7.0,'11111222,11111222,11111222' 
TCOON,ioos:station:TCOON:005:1,2013-05-01T04:18:00Z,27.6346,-97.2370,0.0,5.7,120.0,7.5,'11111222,11111222,11111222' 
TCOON,ioos:station:TCOON:005:1,2013-05-01T04:24:00Z,27.6346,-97.2370,0.0,5.6,122.0,7.4,'11111222,11111222,11111222' 
TCOON,ioos:station:TCOON:005:1,2013-05-01T04:30:00Z,27.6346,-97.2370,0.0,5.5,127.0,7.2,'11111222,11111222,11111222' 
TCOON,ioos:station:TCOON:005:1,2013-05-01T04:36:00Z,27.6346,-97.2370,0.0,5.5,128.0,7.4,'11111222,11111222,11111222' 
TCOON,ioos:station:TCOON:005:1,2013-05-01T04:42:00Z,27.6346,-97.2370,0.0,5.5,130.0,6.8,'11111222,11111222,11111222' 
TCOON,ioos:station:TCOON:005:1,2013-05-01T04:48:00Z,27.6346,-97.2370,0.0,5.2,132.0,6.8,'11111222,11111222,11111222' 
TCOON,ioos:station:TCOON:005:1,2013-05-01T04:54:00Z,27.6346,-97.2370,0.0,5.1,131.0,6.6,'11111222,11111222,11111222' 
TCOON,ioos:station:TCOON:005:1,2013-05-01T05:00:00Z,27.6346,-97.2370,0.0,5.7,130.0,,'1111122,1111122,1111122' 
TCOON,ioos:station:TCOON:005:1,2013-05-01T05:06:00Z,27.6346,-97.2370,0.0,4.3,138.0,6.4,'11111222,11111222,11111222' 
TCOON,ioos:station:TCOON:005:1,2013-05-01T05:12:00Z,27.6346,-97.2370,0.0,4.4,131.0,6.8,'11111222,11111222,11111222' 
TCOON,ioos:station:TCOON:005:1,2013-05-01T05:18:00Z,27.6346,-97.2370,0.0,4.1,134.0,5.8,'11111222,11111222,11111222' 
TCOON,ioos:station:TCOON:005:1,2013-05-01T05:24:00Z,27.6346,-97.2370,0.0,4.3,137.0,6.3,'11111222,11111222,11111222' 
TCOON,ioos:station:TCOON:005:1,2013-05-01T05:30:00Z,27.6346,-97.2370,0.0,5.5,123.0,6.7,'11111222,11111222,11111222' 
TCOON,ioos:station:TCOON:005:1,2013-05-01T05:36:00Z,27.6346,-97.2370,0.0,5.1,126.0,6.8,'11111222,11111222,11111222' 
TCOON,ioos:station:TCOON:005:1,2013-05-01T05:42:00Z,27.6346,-97.2370,0.0,5.3,127.0,6.4,'11111222,11111222,11111222' 
TCOON,ioos:station:TCOON:005:1,2013-05-01T05:48:00Z,27.6346,-97.2370,0.0,5.1,126.0,7.0,'11111222,11111222,11111222' 
TCOON,ioos:station:TCOON:005:1,2013-05-01T05:54:00Z,27.6346,-97.2370,0.0,4.7,126.0,6.6,'11111222,11111222,11111222' 
TCOON,ioos:station:TCOON:005:1,2013-05-01T06:00:00Z,27.6346,-97.2370,0.0,5.1,130.0,,'1111122,1111122,1111122' 
TCOON,ioos:station:TCOON:005:1,2013-05-01T06:06:00Z,27.6346,-97.2370,0.0,5.5,130.0,6.7,'11111222,11111222,11111222' 
TCOON,ioos:station:TCOON:005:1,2013-05-01T06:12:00Z,27.6346,-97.2370,0.0,4.4,138.0,6.4,'11111222,11111222,11111222' 
TCOON,ioos:station:TCOON:005:1,2013-05-01T06:18:00Z,27.6346,-97.2370,0.0,3.9,134.0,5.7,'11111222,11111222,11111222' 
TCOON,ioos:station:TCOON:005:1,2013-05-01T06:24:00Z,27.6346,-97.2370,0.0,3.8,135.0,5.3,'11111222,11111222,11111222' 
TCOON,ioos:station:TCOON:005:1,2013-05-01T06:30:00Z,27.6346,-97.2370,0.0,3.4,136.0,4.8,'11111222,11111222,11111222' 
TCOON,ioos:station:TCOON:005:1,2013-05-01T06:36:00Z,27.6346,-97.2370,0.0,2.9,142.0,4.6,'11111222,11111222,11111222' 
TCOON,ioos:station:TCOON:005:1,2013-05-01T06:42:00Z,27.6346,-97.2370,0.0,3.2,141.0,4.2,'11111222,11111222,11111222' 
TCOON,ioos:station:TCOON:005:1,2013-05-01T06:48:00Z,27.6346,-97.2370,0.0,2.9,143.0,4.0,'11111222,11111222,11111222' 
TCOON,ioos:station:TCOON:005:1,2013-05-01T06:54:00Z,27.6346,-97.2370,0.0,2.9,148.0,4.3,'11111222,11111222,11111222' 
TCOON,ioos:station:TCOON:005:1,2013-05-01T07:00:00Z,27.6346,-97.2370,0.0,3.1,140.0,,'1111122,1111122,1111122' 
TCOON,ioos:station:TCOON:005:1,2013-05-01T07:06:00Z,27.6346,-97.2370,0.0,2.7,144.0,3.8,'11111222,11111222,11111222' 
TCOON,ioos:station:TCOON:005:1,2013-05-01T07:12:00Z,27.6346,-97.2370,0.0,2.6,148.0,3.9,'11111222,11111222,11111222' 
TCOON,ioos:station:TCOON:005:1,2013-05-01T07:18:00Z,27.6346,-97.2370,0.0,2.5,146.0,3.6,'11111222,11111222,11111222' 
TCOON,ioos:station:TCOON:005:1,2013-05-01T07:24:00Z,27.6346,-97.2370,0.0,2.7,153.0,3.6,'11111222,11111222,11111222' 
TCOON,ioos:station:TCOON:005:1,2013-05-01T07:30:00Z,27.6346,-97.2370,0.0,2.4,153.0,3.1,'11111222,11111222,11111222' 
TCOON,ioos:station:TCOON:005:1,2013-05-01T07:36:00Z,27.6346,-97.2370,0.0,2.4,155.0,3.0,'11111222,11111222,11111222' 
TCOON,ioos:station:TCOON:005:1,2013-05-01T07:42:00Z,27.6346,-97.2370,0.0,2.0,155.0,3.1,'11111222,11111222,11111222' 
TCOON,ioos:station:TCOON:005:1,2013-05-01T07:48:00Z,27.6346,-97.2370,0.0,1.8,147.0,2.4,'11111222,11111222,11111222' 
TCOON,ioos:station:TCOON:005:1,2013-05-01T07:54:00Z,27.6346,-97.2370,0.0,2.0,133.0,2.9,'11111222,11111222,11111222' 
TCOON,ioos:station:TCOON:005:1,2013-05-01T08:00:00Z,27.6346,-97.2370,0.0,2.6,160.0,,'1111122,1111122,1111122' 
TCOON,ioos:station:TCOON:005:1,2013-05-01T08:06:00Z,27.6346,-97.2370,0.0,2.5,135.0,3.1,'11111222,11111222,11111222' 
TCOON,ioos:station:TCOON:005:1,2013-05-01T08:12:00Z,27.6346,-97.2370,0.0,2.5,130.0,3.3,'11111222,11111222,11111222' 
TCOON,ioos:station:TCOON:005:1,2013-05-01T08:18:00Z,27.6346,-97.2370,0.0,2.6,123.0,3.9,'11111222,11111222,11111222' 
TCOON,ioos:station:TCOON:005:1,2013-05-01T08:24:00Z,27.6346,-97.2370,0.0,2.9,125.0,3.4,'11111222,11111222,11111222' 
TCOON,ioos:station:TCOON:005:1,2013-05-01T08:30:00Z,27.6346,-97.2370,0.0,2.8,121.0,3.7,'11111222,11111222,11111222' 
TCOON,ioos:station:TCOON:005:1,2013-05-01T08:36:00Z,27.6346,-97.2370,0.0,3.1,121.0,4.1,'11111222,11111222,11111222' 
TCOON,ioos:station:TCOON:005:1,2013-05-01T08:42:00Z,27.6346,-97.2370,0.0,3.0,124.0,3.7,'11111222,11111222,11111222' 
TCOON,ioos:station:TCOON:005:1,2013-05-01T08:48:00Z,27.6346,-97.2370,0.0,3.1,127.0,4.2,'11111222,11111222,11111222' 
TCOON,ioos:station:TCOON:005:1,2013-05-01T08:54:00Z,27.6346,-97.2370,0.0,3.8,136.0,4.7,'11111222,11111222,11111222' 
TCOON,ioos:station:TCOON:005:1,2013-05-01T09:00:00Z,27.6346,-97.2370,0.0,3.1,120.0,,'1111122,1111122,1111122' 
TCOON,ioos:station:TCOON:005:1,2013-05-01T09:06:00Z,27.6346,-97.2370,0.0,3.1,133.0,4.0,'11111222,11111222,11111222' 
TCOON,ioos:station:TCOON:005:1,2013-05-01T09:12:00Z,27.6346,-97.2370,0.0,3.0,142.0,3.7,'11111222,11111222,11111222' 
TCOON,ioos:station:TCOON:005:1,2013-05-01T09:18:00Z,27.6346,-97.2370,0.0,2.7,139.0,3.3,'11111222,11111222,11111222' 
TCOON,ioos:station:TCOON:005:1,2013-05-01T09:24:00Z,27.6346,-97.2370,0.0,2.6,134.0,3.9,'11111222,11111222,11111222' 
TCOON,ioos:station:TCOON:005:1,2013-05-01T09:30:00Z,27.6346,-97.2370,0.0,2.6,128.0,3.7,'11111222,11111222,11111222' 
TCOON,ioos:station:TCOON:005:1,2013-05-01T09:36:00Z,27.6346,-97.2370,0.0,2.5,133.0,3.9,'11111222,11111222,11111222' 
TCOON,ioos:station:TCOON:005:1,2013-05-01T09:42:00Z,27.6346,-97.2370,0.0,3.1,131.0,4.2,'11111222,11111222,11111222' 
TCOON,ioos:station:TCOON:005:1,2013-05-01T09:48:00Z,27.6346,-97.2370,0.0,2.7,137.0,3.6,'11111222,11111222,11111222' 
TCOON,ioos:station:TCOON:005:1,2013-05-01T09:54:00Z,27.6346,-97.2370,0.0,2.8,140.0,3.6,'11111222,11111222,11111222' 
TCOON,ioos:station:TCOON:005:1,2013-05-01T10:00:00Z,27.6346,-97.2370,0.0,2.6,130.0,,'1111122,1111122,1111122' 
TCOON,ioos:station:TCOON:005:1,2013-05-01T10:06:00Z,27.6346,-97.2370,0.0,2.3,135.0,3.5,'11111222,11111222,11111222' 
TCOON,ioos:station:TCOON:005:1,2013-05-01T10:12:00Z,27.6346,-97.2370,0.0,2.7,130.0,3.3,'11111222,11111222,11111222' 
TCOON,ioos:station:TCOON:005:1,2013-05-01T10:18:00Z,27.6346,-97.2370,0.0,2.7,134.0,3.7,'11111222,11111222,11111222' 
TCOON,ioos:station:TCOON:005:1,2013-05-01T10:24:00Z,27.6346,-97.2370,0.0,2.6,139.0,3.6,'11111222,11111222,11111222' 
TCOON,ioos:station:TCOON:005:1,2013-05-01T10:30:00Z,27.6346,-97.2370,0.0,2.3,152.0,3.5,'11111222,11111222,11111222' 
TCOON,ioos:station:TCOON:005:1,2013-05-01T10:36:00Z,27.6346,-97.2370,0.0,2.4,158.0,3.0,'11111222,11111222,11111222' 
TCOON,ioos:station:TCOON:005:1,2013-05-01T10:42:00Z,27.6346,-97.2370,0.0,2.4,163.0,3.2,'11111222,11111222,11111222' 
TCOON,ioos:station:TCOON:005:1,2013-05-01T10:48:00Z,27.6346,-97.2370,0.0,2.4,163.0,3.6,'11111222,11111222,11111222' 
TCOON,ioos:station:TCOON:005:1,2013-05-01T10:54:00Z,27.6346,-97.2370,0.0,2.2,166.0,2.8,'11111222,11111222,11111222' 
TCOON,ioos:station:TCOON:005:1,2013-05-01T11:00:00Z,27.6346,-97.2370,0.0,2.6,160.0,,'1111122,1111122,1111122' 
TCOON,ioos:station:TCOON:005:1,2013-05-01T11:06:00Z,27.6346,-97.2370,0.0,1.9,149.0,3.2,'11111222,11111222,11111222' 
TCOON,ioos:station:TCOON:005:1,2013-05-01T11:12:00Z,27.6346,-97.2370,0.0,2.0,151.0,2.6,'11111222,11111222,11111222' 
TCOON,ioos:station:TCOON:005:1,2013-05-01T11:18:00Z,27.6346,-97.2370,0.0,1.9,139.0,2.5,'11111222,11111222,11111222' 
TCOON,ioos:station:TCOON:005:1,2013-05-01T11:24:00Z,27.6346,-97.2370,0.0,1.8,119.0,2.4,'11111222,11111222,11111222' 
TCOON,ioos:station:TCOON:005:1,2013-05-01T11:30:00Z,27.6346,-97.2370,0.0,1.5,119.0,2.1,'11111222,11111222,11111222' 
TCOON,ioos:station:TCOON:005:1,2013-05-01T11:36:00Z,27.6346,-97.2370,0.0,1.4,132.0,1.8,'11111222,11111222,11111222' 
TCOON,ioos:station:TCOON:005:1,2013-05-01T11:42:00Z,27.6346,-97.2370,0.0,1.9,108.0,2.2,'11111222,11111222,11111222' 
TCOON,ioos:station:TCOON:005:1,2013-05-01T11:48:00Z,27.6346,-97.2370,0.0,1.9,85.0,2.3,'11111222,11111222,11111222' 
TCOON,ioos:station:TCOON:005:1,2013-05-01T11:54:00Z,27.6346,-97.2370,0.0,2.1,89.0,2.6,'11111222,11111222,11111222' 
TCOON,ioos:station:TCOON:005:1,2013-05-01T12:00:00Z,27.6346,-97.2370,0.0,1.5,130.0,,'1111122,1111122,1111122' 
TCOON,ioos:station:TCOON:005:1,2013-05-01T12:06:00Z,27.6346,-97.2370,0.0,2.6,76.0,2.9,'11111222,11111222,11111222' 
TCOON,ioos:station:TCOON:005:1,2013-05-01T12:12:00Z,27.6346,-97.2370,0.0,3.4,64.0,3.9,'11111222,11111222,11111222' 
TCOON,ioos:station:TCOON:005:1,2013-05-01T12:18:00Z,27.6346,-97.2370,0.0,3.0,66.0,3.9,'11111222,11111222,11111222' 
TCOON,ioos:station:TCOON:005:1,2013-05-01T12:24:00Z,27.6346,-97.2370,0.0,2.2,93.0,3.0,'11111222,11111222,11111222' 
TCOON,ioos:station:TCOON:005:1,2013-05-01T12:30:00Z,27.6346,-97.2370,0.0,2.4,101.0,3.0,'11111222,11111222,11111222' 
TCOON,ioos:station:TCOON:005:1,2013-05-01T12:36:00Z,27.6346,-97.2370,0.0,2.5,98.0,2.9,'11111222,11111222,11111222' 
TCOON,ioos:station:TCOON:005:1,2013-05-01T12:42:00Z,27.6346,-97.2370,0.0,2.6,105.0,3.2,'11111222,11111222,11111222' 
TCOON,ioos:station:TCOON:005:1,2013-05-01T12:48:00Z,27.6346,-97.2370,0.0,2.4,121.0,3.2,'11111222,11111222,11111222' 
TCOON,ioos:station:TCOON:005:1,2013-05-01T12:54:00Z,27.6346,-97.2370,0.0,2.6,135.0,3.3,'11111222,11111222,11111222' 
TCOON,ioos:station:TCOON:005:1,2013-05-01T13:00:00Z,27.6346,-97.2370,0.0,2.6,100.0,,'1111122,1111122,1111122' 
TCOON,ioos:station:TCOON:005:1,2013-05-01T13:06:00Z,27.6346,-97.2370,0.0,2.3,122.0,3.4,'11111222,11111222,11111222' 
TCOON,ioos:station:TCOON:005:1,2013-05-01T13:12:00Z,27.6346,-97.2370,0.0,2.5,133.0,3.5,'11111222,11111222,11111222' 
TCOON,ioos:station:TCOON:005:1,2013-05-01T13:18:00Z,27.6346,-97.2370,0.0,2.5,116.0,3.2,'11111222,11111222,11111222' 
TCOON,ioos:station:TCOON:005:1,2013-05-01T13:24:00Z,27.6346,-97.2370,0.0,2.8,114.0,3.5,'11111222,11111222,11111222' 
TCOON,ioos:station:TCOON:005:1,2013-05-01T13:30:00Z,27.6346,-97.2370,0.0,2.8,118.0,3.4,'11111222,11111222,11111222' 
TCOON,ioos:station:TCOON:005:1,2013-05-01T13:36:00Z,27.6346,-97.2370,0.0,2.5,116.0,3.3,'11111222,11111222,11111222' 
TCOON,ioos:station:TCOON:005:1,2013-05-01T13:42:00Z,27.6346,-97.2370,0.0,2.8,118.0,3.5,'11111222,11111222,11111222' 
TCOON,ioos:station:TCOON:005:1,2013-05-01T13:48:00Z,27.6346,-97.2370,0.0,2.2,137.0,3.2,'11111222,11111222,11111222' 
TCOON,ioos:station:TCOON:005:1,2013-05-01T13:54:00Z,27.6346,-97.2370,0.0,2.0,146.0,3.1,'11111222,11111222,11111222' 
TCOON,ioos:station:TCOON:005:1,2013-05-01T14:00:00Z,27.6346,-97.2370,0.0,2.6,120.0,,'1111122,1111122,1111122' 
TCOON,ioos:station:TCOON:005:1,2013-05-01T14:06:00Z,27.6346,-97.2370,0.0,3.2,152.0,4.5,'11111222,11111222,11111222' 
TCOON,ioos:station:TCOON:005:1,2013-05-01T14:12:00Z,27.6346,-97.2370,0.0,3.0,146.0,3.7,'11111222,11111222,11111222' 
TCOON,ioos:station:TCOON:005:1,2013-05-01T14:18:00Z,27.6346,-97.2370,0.0,3.1,152.0,4.0,'11111222,11111222,11111222' 
TCOON,ioos:station:TCOON:005:1,2013-05-01T14:24:00Z,27.6346,-97.2370,0.0,2.7,151.0,3.6,'11111222,11111222,11111222' 
TCOON,ioos:station:TCOON:005:1,2013-05-01T14:30:00Z,27.6346,-97.2370,0.0,2.1,151.0,2.9,'11111222,11111222,11111222' 
TCOON,ioos:station:TCOON:005:1,2013-05-01T14:36:00Z,27.6346,-97.2370,0.0,2.6,142.0,3.9,'11111222,11111222,11111222' 
TCOON,ioos:station:TCOON:005:1,2013-05-01T14:42:00Z,27.6346,-97.2370,0.0,3.8,135.0,4.6,'11111222,11111222,11111222' 
TCOON,ioos:station:TCOON:005:1,2013-05-01T14:48:00Z,27.6346,-97.2370,0.0,3.5,137.0,4.9,'11111222,11111222,11111222' 
TCOON,ioos:station:TCOON:005:1,2013-05-01T14:54:00Z,27.6346,-97.2370,0.0,3.9,137.0,5.0,'11111222,11111222,11111222' 
TCOON,ioos:station:TCOON:005:1,2013-05-01T15:00:00Z,27.6346,-97.2370,0.0,2.6,140.0,,'1111122,1111122,1111122' 
TCOON,ioos:station:TCOON:005:1,2013-05-01T15:06:00Z,27.6346,-97.2370,0.0,3.9,135.0,5.0,'11111222,11111222,11111222' 
TCOON,ioos:station:TCOON:005:1,2013-05-01T15:12:00Z,27.6346,-97.2370,0.0,4.9,106.0,5.5,'11111222,11111222,11111222' 
TCOON,ioos:station:TCOON:005:1,2013-05-01T15:18:00Z,27.6346,-97.2370,0.0,4.2,104.0,5.6,'11111222,11111222,11111222' 
TCOON,ioos:station:TCOON:005:1,2013-05-01T15:24:00Z,27.6346,-97.2370,0.0,3.4,99.0,4.7,'11111222,11111222,11111222' 
TCOON,ioos:station:TCOON:005:1,2013-05-01T15:30:00Z,27.6346,-97.2370,0.0,3.7,104.0,4.4,'11111222,11111222,11111222' 
TCOON,ioos:station:TCOON:005:1,2013-05-01T15:36:00Z,27.6346,-97.2370,0.0,4.1,94.0,5.7,'11111222,11111222,11111222' 
TCOON,ioos:station:TCOON:005:1,2013-05-01T15:42:00Z,27.6346,-97.2370,0.0,4.0,103.0,5.2,'11111222,11111222,11111222' 
TCOON,ioos:station:TCOON:005:1,2013-05-01T15:48:00Z,27.6346,-97.2370,0.0,4.2,95.0,4.8,'11111222,11111222,11111222' 
TCOON,ioos:station:TCOON:005:1,2013-05-01T15:54:00Z,27.6346,-97.2370,0.0,4.6,93.0,5.3,'11111222,11111222,11111222' 
TCOON,ioos:station:TCOON:005:1,2013-05-01T16:00:00Z,27.6346,-97.2370,0.0,4.1,90.0,,'1111122,1111122,1111122' 
TCOON,ioos:station:TCOON:005:1,2013-05-01T16:06:00Z,27.6346,-97.2370,0.0,4.8,91.0,5.8,'11111222,11111222,11111222' 
TCOON,ioos:station:TCOON:005:1,2013-05-01T16:12:00Z,27.6346,-97.2370,0.0,5.3,89.0,6.2,'11111222,11111222,11111222' 
TCOON,ioos:station:TCOON:005:1,2013-05-01T16:18:00Z,27.6346,-97.2370,0.0,4.4,97.0,6.2,'11111222,11111222,11111222' 
TCOON,ioos:station:TCOON:005:1,2013-05-01T16:24:00Z,27.6346,-97.2370,0.0,5.0,95.0,6.1,'11111222,11111222,11111222' 
TCOON,ioos:station:TCOON:005:1,2013-05-01T16:30:00Z,27.6346,-97.2370,0.0,5.5,93.0,6.3,'11111222,11111222,11111222' 
TCOON,ioos:station:TCOON:005:1,2013-05-01T16:36:00Z,27.6346,-97.2370,0.0,6.0,89.0,7.1,'11111222,11111222,11111222' 
TCOON,ioos:station:TCOON:005:1,2013-05-01T16:42:00Z,27.6346,-97.2370,0.0,6.4,83.0,7.4,'11111222,11111222,11111222' 
TCOON,ioos:station:TCOON:005:1,2013-05-01T16:48:00Z,27.6346,-97.2370,0.0,6.2,90.0,7.7,'11111222,11111222,11111222' 
TCOON,ioos:station:TCOON:005:1,2013-05-01T16:54:00Z,27.6346,-97.2370,0.0,6.4,89.0,7.2,'11111222,11111222,11111222' 
TCOON,ioos:station:TCOON:005:1,2013-05-01T17:00:00Z,27.6346,-97.2370,0.0,6.2,90.0,,'1111122,1111122,1111122' 
TCOON,ioos:station:TCOON:005:1,2013-05-01T17:06:00Z,27.6346,-97.2370,0.0,6.9,88.0,8.1,'11111222,11111222,11111222' 
TCOON,ioos:station:TCOON:005:1,2013-05-01T17:12:00Z,27.6346,-97.2370,0.0,6.6,94.0,7.6,'11111222,11111222,11111222' 
TCOON,ioos:station:TCOON:005:1,2013-05-01T17:18:00Z,27.6346,-97.2370,0.0,6.9,87.0,8.2,'11111222,11111222,11111222' 
TCOON,ioos:station:TCOON:005:1,2013-05-01T17:24:00Z,27.6346,-97.2370,0.0,6.7,89.0,8.5,'11111222,11111222,11111222' 
TCOON,ioos:station:TCOON:005:1,2013-05-01T17:30:00Z,27.6346,-97.2370,0.0,6.8,88.0,8.3,'11111222,11111222,11111222' 
TCOON,ioos:station:TCOON:005:1,2013-05-01T17:36:00Z,27.6346,-97.2370,0.0,6.6,87.0,8.3,'11111222,11111222,11111222' 
TCOON,ioos:station:TCOON:005:1,2013-05-01T17:42:00Z,27.6346,-97.2370,0.0,6.5,91.0,7.7,'11111222,11111222,11111222' 
TCOON,ioos:station:TCOON:005:1,2013-05-01T17:48:00Z,27.6346,-97.2370,0.0,6.4,96.0,7.9,'11111222,11111222,11111222' 
TCOON,ioos:station:TCOON:005:1,2013-05-01T17:54:00Z,27.6346,-97.2370,0.0,6.3,98.0,7.7,'11111222,11111222,11111222' 
TCOON,ioos:station:TCOON:005:1,2013-05-01T18:00:00Z,27.6346,-97.2370,0.0,6.7,90.0,,'1111122,1111122,1111122' 
TCOON,ioos:station:TCOON:005:1,2013-05-01T18:06:00Z,27.6346,-97.2370,0.0,6.3,97.0,7.4,'11111222,11111222,11111222' 
TCOON,ioos:station:TCOON:005:1,2013-05-01T18:12:00Z,27.6346,-97.2370,0.0,6.1,101.0,7.4,'11111222,11111222,11111222' 
TCOON,ioos:station:TCOON:005:1,2013-05-01T18:18:00Z,27.6346,-97.2370,0.0,7.4,81.0,8.2,'11111222,11111222,11111222' 
TCOON,ioos:station:TCOON:005:1,2013-05-01T18:24:00Z,27.6346,-97.2370,0.0,6.9,81.0,7.6,'11111222,11111222,11111222' 
TCOON,ioos:station:TCOON:005:1,2013-05-01T18:30:00Z,27.6346,-97.2370,0.0,6.8,80.0,7.8,'11111222,11111222,11111222' 
TCOON,ioos:station:TCOON:005:1,2013-05-01T18:36:00Z,27.6346,-97.2370,0.0,6.5,86.0,7.8,'11111222,11111222,11111222' 
TCOON,ioos:station:TCOON:005:1,2013-05-01T18:42:00Z,27.6346,-97.2370,0.0,6.9,87.0,7.8,'11111222,11111222,11111222' 
TCOON,ioos:station:TCOON:005:1,2013-05-01T18:48:00Z,27.6346,-97.2370,0.0,7.0,91.0,8.0,'11111222,11111222,11111222' 
TCOON,ioos:station:TCOON:005:1,2013-05-01T18:54:00Z,27.6346,-97.2370,0.0,6.5,89.0,8.1,'11111222,11111222,11111222' 
TCOON,ioos:station:TCOON:005:1,2013-05-01T19:00:00Z,27.6346,-97.2370,0.0,6.7,90.0,,'1111122,1111122,1111122' 
TCOON,ioos:station:TCOON:005:1,2013-05-01T19:06:00Z,27.6346,-97.2370,0.0,6.5,88.0,7.6,'11111222,11111222,11111222' 
TCOON,ioos:station:TCOON:005:1,2013-05-01T19:12:00Z,27.6346,-97.2370,0.0,5.8,94.0,7.1,'11111222,11111222,11111222' 
TCOON,ioos:station:TCOON:005:1,2013-05-01T19:18:00Z,27.6346,-97.2370,0.0,6.5,86.0,8.0,'11111222,11111222,11111222' 
TCOON,ioos:station:TCOON:005:1,2013-05-01T19:24:00Z,27.6346,-97.2370,0.0,6.5,92.0,7.6,'11111222,11111222,11111222' 
TCOON,ioos:station:TCOON:005:1,2013-05-01T19:30:00Z,27.6346,-97.2370,0.0,6.4,88.0,7.9,'11111222,11111222,11111222' 
TCOON,ioos:station:TCOON:005:1,2013-05-01T19:36:00Z,27.6346,-97.2370,0.0,6.9,81.0,8.2,'11111222,11111222,11111222' 
TCOON,ioos:station:TCOON:005:1,2013-05-01T19:42:00Z,27.6346,-97.2370,0.0,6.9,83.0,7.8,'11111222,11111222,11111222' 
TCOON,ioos:station:TCOON:005:1,2013-05-01T19:48:00Z,27.6346,-97.2370,0.0,6.4,89.0,7.9,'11111222,11111222,11111222' 
TCOON,ioos:station:TCOON:005:1,2013-05-01T19:54:00Z,27.6346,-97.2370,0.0,6.7,86.0,7.9,'11111222,11111222,11111222' 
TCOON,ioos:station:TCOON:005:1,2013-05-01T20:00:00Z,27.6346,-97.2370,0.0,6.7,80.0,,'1111122,1111122,1111122' 
TCOON,ioos:station:TCOON:005:1,2013-05-01T20:06:00Z,27.6346,-97.2370,0.0,7.0,84.0,8.2,'11111222,11111222,11111222' 
TCOON,ioos:station:TCOON:005:1,2013-05-01T20:12:00Z,27.6346,-97.2370,0.0,7.4,81.0,8.4,'11111222,11111222,11111222' 
TCOON,ioos:station:TCOON:005:1,2013-05-01T20:18:00Z,27.6346,-97.2370,0.0,6.5,86.0,8.1,'11111222,11111222,11111222' 
TCOON,ioos:station:TCOON:005:1,2013-05-01T20:24:00Z,27.6346,-97.2370,0.0,6.9,85.0,8.2,'11111222,11111222,11111222' 